Regional Weather Roundup
Issued by NWS Bismarck, ND

Home | Current Version | Previous Version | Text Only | Print | Product List | Glossary On
Versions: 1 2 3 4 5 6 7 8 9 10 11 12 13 14 15 16 17 18 19 20 21 22 23 24 25 26 27 28 29 30 31 32 33 34 35 36 37 38 39 40 41 42 43 44 45 46 47 48 49 50
000
ASUS43 KBIS 271410
RWRBIS

NWR BROADCAST TEXT
NATIONAL WEATHER SERVICE BISMARCK ND
900 AM CDT WED MAY 27 2015

NOTE: "FAIR" INDICATES FEW OR NO CLOUDS BELOW 12,000 FEET WITH NO
SIGNIFICANT WEATHER AND/OR OBSTRUCTIONS TO VISIBILITY.


CITY           SKY/WX    TMP DP  RH WIND       PRES   REMARKS
WILLISTON      SUNNY     65  47  52 VRB3      29.93S
MINOT          MOSUNNY   64  48  56 S3        29.95S
MINOT AFB      MOSUNNY   68  55  63 CALM      29.95R
BISMARCK       SUNNY     65  51  60 CALM      29.96S
DICKINSON      PTSUNNY   63  50  62 S9        29.94F
GARRISON         N/A     68  50  52 CALM      29.95R
HETTINGER ARPT SUNNY     62  49  62 SE3       29.98S
JAMESTOWN      SUNNY     66  53  63 NW8       29.94F
BEACH          FAIR      59  55  88 S7        29.95S
CARRINGTON     FAIR      64  50  59 NW5       29.97R
CROSBY         FAIR      63  50  63 SE7       29.95S
HARVEY         FAIR      61  52  72 E6        29.97R
HAZEN          FAIR      63  48  59 CALM      29.96S
LINTON         FAIR      64  57  77 CALM      29.97S
MANDAN         FAIR      64  55  72 CALM      29.97S
OAKES            N/A     64  55  72 NW7       29.96R
STANLEY        FAIR      66  50  55 NE5       29.97R
WATFORD CITY   FAIR      63  48  59 E3        29.92S
$$

CITY           SKY/WX    TMP DP  RH WIND       PRES   REMARKS
GRAND FORKS    MOSUNNY   58  46  64 N14       29.94R
GRAND FORKS AF SUNNY     58  46  63 N10       29.95R
DEVILS LAKE    SUNNY     57  46  67 N8        29.96R
FARGO          SUNNY     64  53  67 N14       29.92R
CANDO          FAIR      55  45  67 NE10      29.98R
CAVALIER       FAIR      55  45  67 N16       29.97R
GRAFTON        FAIR      55  46  71 N13G20    29.96R
LANGDON        FAIR      55  45  67 N10G17    29.98R
ROLLA          FAIR      52  41  66 N13       30.00S
WALHALLA         N/A     54  45  71 MISG      29.98R
$$

CITY           SKY/WX    TMP DP  RH WIND       PRES   REMARKS
ABERDEEN       SUNNY     70  54  56 NW3       29.97R
MOBRIDGE       MOSUNNY   63  54  72 S5        29.96R
BUFFALO          N/A     59  51  75 S3        29.91S
RAPID CITY     PTSUNNY   58  54  86 S12       30.00R
GLASGOW        CLOUDY    58  53  84 NE9       29.92F
SIDNEY         MOSUNNY   63  48  59 CALM      29.93S
WOLF POINT     CLOUDY    59  50  72 CALM      29.94R
GLENDIVE       PTSUNNY   61  52  72 CALM      29.94S
MILES CITY     CLOUDY    61  51  70 NE7       29.93R
BAKER          PTSUNNY   61  51  70 SE6       29.95S
$$

CITY           SKY/WX    TMP DP  RH WIND       PRES   REMARKS
BILLINGS       PTSUNNY   54  51  90 SW6       29.99S
GREAT FALLS    CLOUDY    51  48  89 SW10      30.03R
REGINA         MOSUNNY   55  46  71 E14       29.99S
ESTEVAN        PTSUNNY   55  46  71 E15G21    29.97R
$$



USA.gov is the U.S. government's official web portal to all federal, state and local government web resources and services.